Flag for Germany Weather past 2 weeks in Filderstadt, Baden-Württemberg, Germany

Now
34 °F

Overcast.


Feels Like: 34 °F
Forecast: 30 / 36 °F
Wind: 1 mph from Southwest

Location: Stuttgart-Echterdingen

Current Time: Jan 25, 2015 at 10:23:21 PM

Latest Report: Jan 25, 2015 at 9:00 PM


Visibility: 13 mi

Pressure: 30.44 "Hg

Humidity: 88%

Dew point: 31 °F

Location of FilderstadtLocation

Historic Weather in Filderstadt — Graph

°F

Filderstadt temperature yesterday

Maximum temperature yesterday: 35 °F (at 3:00 PM)
Minimum temperature yesterday: 32 °F (at 9:00 PM)
Average temperature yesterday: 33 °F

Past Weeks' High & Low Weather Summary

 TemperatureHumidityPressure
High58 °F (Jan 13, 3:00 PM)99% (Jan 18, 7:00 AM)30.47 "Hg (Jan 18, 7:00 AM)
Low27 °F (Jan 19, 6:00 AM)30% (Jan 13, 3:00 PM)29.72 "Hg (Jan 16, 5:00 PM)
Average37 °F82%30.05 "Hg
* Reported Jan 10 9:00 PM — Jan 25 9:00 PM, Filderstadt, Weather by CustomWeather, © 2014

Note: Actual official high and low records may vary slightly from our data, if they occured in-between our weather recording intervals... More about our weather records

Advertising

Filderstadt weather history for previous 24 hours

 ConditionsComfort  
Time TempWeatherWind HumidityBarometerVisibility
9:00 PM
Jan 25
34 °FOvercast.1 mph88%30.44 "Hg12 mi
8:00 PM34 °FOvercast.1 mph87%30.45 "Hg12 mi
7:00 PM34 °FOvercast.2 mph85%30.45 "Hg14 mi
6:00 PM35 °FOvercast.3 mph79%30.45 "Hg15 mi
5:00 PM35 °FOvercast.2 mph80%30.43 "Hg17 mi
4:00 PM36 °FOvercast.2 mph81%30.42 "Hg15 mi
3:00 PM36 °FOvercast.3 mph79%30.43 "Hg12 mi
2:00 PM35 °FOvercast.2 mph82%30.44 "Hg11 mi
1:00 PM35 °FOvercast.3 mph85%30.45 "Hg7 mi
12:00 PM34 °FOvercast.3 mph86%30.47 "Hg7 mi
11:00 AM34 °FOvercast.1 mph87%30.47 "Hg6 mi
10:00 AM33 °FOvercast.2 mph87%30.45 "Hg6 mi
9:00 AM32 °FOvercast.3 mph88%30.45 "Hg6 mi
8:00 AM32 °FOvercast.5 mph88%30.43 "Hg6 mi
7:00 AM33 °FOvercast.5 mph89%30.40 "Hg7 mi
6:00 AM32 °FOvercast.3 mph90%30.39 "Hg7 mi
3:00 AM33 °FLow clouds.7 mph91%30.33 "Hg6 mi
2:00 AM33 °FLight snow. Low clouds.8 mph94%30.32 "Hg3 mi
1:00 AM32 °FLight snow. Low clouds.2 mph95%30.30 "Hg2 mi
12:00 AM31 °FLight snow. Low clouds.2 mph94%30.30 "Hg2 mi
10:00 PM
Jan 24
32 °FLight snow. Overcast.2 mph91%30.27 "Hg6 mi
Weather by CustomWeather, © 2014

See weather overviewHow to use our weather pages